PARDEE (PAR)

Elevation: 568' · MOKELUMNE R basin · Operator: East Bay Municipal Utility District

Provisional data, subject to change.
Query executed Saturday at 1:30:58   clock

Select a sensor type for a plot of data.
Note: Reservoir Flows are daily averages.

Earlier

Date RES ELE    STORAGE    RES CHG    OUTFLOW    INFLOW    PPT INC   
 FEET   AF   AF   CFS   CFS   INCHES  
09/26/2014 550.93 162870 753 201 562 0.00
09/27/2014 551.23 163480 598 198 532 0.00
09/28/2014 551.57 164090 662 215 549 0.02
09/29/2014 551.29 163560 -421 786 519 0.00
09/30/2014 550.72 162400 -1027 1086 490 0.00
10/01/2014 550.15 161432 -968 1083 304 0.00
10/02/2014 549.64 160428 -1004 1056 292 0.00
10/03/2014 549.90 160928 500 211 -28 0.00
10/04/2014 549.90 160928 0 211 -28 0.00
10/05/2014 549.90 160928 0 211 -28 0.00
10/06/2014 550.15 161416 488 755 656 0.00
10/07/2014 549.89 160924 -492 758 284 0.00
10/08/2014 549.59 160327 -597 752 342 0.00
10/09/2014 549.82 160781 454 192 71 0.00
10/10/2014 550.04 161212 431 212 395 0.00
10/11/2014 550.26 161640 428 216 406 0.00
10/12/2014 550.47 162043 403 208 419 0.00
10/13/2014 550.14 161404 -639 776 599 0.00
10/14/2014 549.80 160742 -662 775 298 0.00
10/15/2014 549.50 160168 -574 760 303 0.02
10/16/2014 549.24 159663 -505 734 312 0.00
10/17/2014 549.53 160226 563 154 56 0.00
10/18/2014 549.82 160773 547 149 381 0.00
10/19/2014 550.06 161244 471 191 385 0.00
10/20/2014 550.21 161542 298 213 419 0.02
10/21/2014 550.32 161753 211 210 335 0.01
10/22/2014 550.01 161154 -599 743 526 0.00
10/23/2014 549.80 160742 -412 717 279 0.00
10/24/2014 -- -- -- 713 306 --
10/25/2014 -- -- -- -- -- --

Later | Latest

Warning! This data is preliminary and subject to revision.

Show PAR Map | Plot PAR Data | 1 Month PAR Data | Real-Time PAR Data | PAR Info